STARLINK-35591, 66984

Orbit data source: Space-Track

STARLINK-35591, 66984 is a payload satellite owned by SpaceX/Seattle (US) in LEO that was launched on Mon, 08 Dec 2025 UTC via an FALCON 9 launch vehicle from the Air Force Eastern Test Range (AFETR). Payload-class satellites include a variety of spacecraft equipped with specific instruments for various scientific and technological missions. These include communications satellites like Starlink; space stations such as the ISS; scientific satellites like the Hubble; Earth observation satellites from companies like Planet Labs, Umbra, and HawkEye 360; GPS; miniature CubeSats for education and research; and military/defense satellites.

Loading next visibility...
Identifier
66984, 2025-288AB
Orbit
LEO
Country
Flag of USUS
Related business
Manufacturer
SpaceX/Seattle
Mission
Operational Commercial Communications
Bus & Motor
STARLINK V2MO, Unknown motor
Mass
575 kg wet, ~530 kg dry
Launch date (UTC)
2025-12-08 (7 months ago)
Launch vehicle
FALCON 9
Launch site
Air Force Eastern Test Range (AFETR)
Object type
Payload
Rocket body
Debris
Shape & HBR
Box + 2 Pan, 17.7 m
Radar Cross Section
36.964 m², Large (>1 m²)

Expand to show TLE details & history
Last TLE update: 13 hours ago

TLE from 13 hours ago
0 STARLINK-35591
1 66984U 25288AB  26177.55462691  .00016878  00000-0  62123-3 0  9996
2 66984  42.9962 128.9140 0001781 287.1279  72.9378 15.27591367 31933
Epoch: 2026-06-26T13:18Z
TLE epoch observation values (Epoch: 2026-06-26T13:18:39.765Z)
Latitude
0.00004°
Longitude
14.56689°
Altitude
482.432 km
Speed
7.626 km/s
True Right ascension
08h 35m 39s
True Declination
0° 00' 00"
Sunlit
Object was in daylight at epoch
Visualization orbit readout
Latitude
Unknown
Longitude
Unknown
Altitude
Unknown
Speed
Unknown
Apparent Right ascension
Unknown
Apparent Declination
Unknown
Sunlit
N/A
Visualization observer readout
Local Sidereal Time
13:32:28
Azimuth
Unknown
Elevation
Unknown
Doppler factor
Unknown
Orbital elements
Apogee altitude
486.183 km
Perigee altitude
483.739 km
Semi-major axis
6,863.098 km
Eccentricity
0.00018
Inclination
42.9962°
RAAN
128.914°
Arg. of periapsis
287.1279°
True anomaly
72.95731°
Mean anomaly
72.9378°
Eccentric anomaly
72.94756°
Mean motion
3.81736 °/min
Orbital period
94.31 mins
BSTAR
0.00062123
Loading maneuver chart data...
Computing Atmospheric mass density...
Loading historical data...
Loading historical data...
Loading historical data...
Loading historical data...
Loading historical data...
Loading historical data...
Loading historical data...

Documentation

Showing up to 5 results
|